Location: 5810 Zion Rd, Cleves, OH 45002, USA
(39.1922°N, 84.7113°W)
Time: 12:17:29
(UTC-05:00)

Courier 1B - Visible Passes

Search period start: 07 December 2019 00:00
Search period end: 17 December 2019 00:00
Orbit: 963 x 1209 km, 28.3° (Epoch: 06 December)

Date Brightness Start Highest point End Pass type
(mag) Time Alt. Az. Time Alt. Az. Time Alt. Az.
07 Dec 10.2 03:49:48 11° SSE 03:49:48 11° SSE 03:50:05 10° SSE visible
08 Dec 10.0 04:46:23 11° S 04:46:23 11° S 04:47:04 10° S visible
10 Dec 9.8 20:17:48 10° SSW 20:19:31 14° S 20:19:31 14° S visible
11 Dec 9.6 19:25:47 10° S 19:28:39 13° SSE 19:29:10 13° SSE visible
11 Dec 10.2 21:15:45 10° SW 21:16:04 11° SW 21:16:04 11° SW visible
12 Dec 9.4 20:22:39 10° SSW 20:25:43 20° S 20:25:43 20° S visible
13 Dec 9.2 19:29:47 10° SSW 19:34:32 19° SSE 19:35:21 19° SSE visible
13 Dec 10.1 21:21:30 10° SW 21:22:15 13° SW 21:22:15 13° SW visible
14 Dec 9.6 18:37:20 10° S 18:41:00 15° SSE 18:44:45 10° ESE visible
14 Dec 9.2 20:28:10 10° SW 20:31:52 25° SSW 20:31:52 25° SSW visible
15 Dec 9.8 17:46:01 10° SSE 17:47:30 11° SSE 17:48:59 10° SE visible
15 Dec 8.9 19:34:58 10° SW 19:40:30 26° SSE 19:41:28 25° SSE visible
15 Dec 10.1 21:27:33 10° WSW 21:28:22 13° WSW 21:28:22 13° WSW visible
16 Dec 9.2 18:41:59 10° SSW 18:46:55 22° SSE 18:51:05 13° ESE visible
16 Dec 9.1 20:34:04 10° SW 20:37:58 28° SSW 20:37:58 28° SSW visible
